TimeCDT,TemperatureF,Dew PointF,Humidity,Sea Level PressureIn,VisibilityMPH,Wind Direction,Wind SpeedMPH,Gust SpeedMPH,PrecipitationIn,Events,Conditions,WindDirDegrees,DateUTC
12:15 AM,62.8,54.5,74,30.01,10.0,North,5.8,-,N/A,,Clear,10,2013-08-02 05:15:00
12:35 AM,61.0,54.7,80,30.00,10.0,Calm,Calm,-,N/A,,Clear,0,2013-08-02 05:35:00
1:15 AM,60.8,53.6,77,30.00,10.0,WNW,4.6,-,N/A,,Clear,300,2013-08-02 06:15:00
1:55 AM,60.8,54.5,80,30.00,10.0,Calm,Calm,-,N/A,,Clear,0,2013-08-02 06:55:00
2:15 AM,61.7,55.4,80,30.01,10.0,SE,9.2,-,N/A,,Clear,130,2013-08-02 07:15:00
2:35 AM,61.0,55.8,83,30.00,10.0,SE,6.9,-,N/A,,Clear,130,2013-08-02 07:35:00
3:15 AM,62.6,54.0,73,30.00,10.0,Calm,Calm,-,N/A,,Clear,0,2013-08-02 08:15:00
3:35 AM,62.4,54.5,75,30.00,10.0,South,5.8,-,N/A,,Scattered Clouds,190,2013-08-02 08:35:00
3:37 AM,62.6,53.6,72,30.00,10.0,South,5.8,-,N/A,,Scattered Clouds,190,2013-08-02 08:37:00
3:55 AM,62.6,54.5,75,30.00,10.0,SSW,5.8,-,N/A,,Scattered Clouds,200,2013-08-02 08:55:00
4:15 AM,62.6,54.5,75,30.00,10.0,SSW,5.8,-,N/A,,Clear,210,2013-08-02 09:15:00
4:35 AM,62.2,54.5,76,30.00,10.0,SSW,6.9,-,N/A,,Scattered Clouds,200,2013-08-02 09:35:00
4:55 AM,62.6,54.3,74,30.00,10.0,South,5.8,-,N/A,,Scattered Clouds,190,2013-08-02 09:55:00
5:15 AM,61.9,54.5,77,30.00,10.0,SW,5.8,-,N/A,,Clear,230,2013-08-02 10:15:00
5:35 AM,62.1,54.1,75,29.99,10.0,West,4.6,-,N/A,,Clear,260,2013-08-02 10:35:00
5:55 AM,58.5,53.8,84,30.00,10.0,NW,4.6,-,N/A,,Clear,310,2013-08-02 10:55:00
6:15 AM,59.5,54.1,82,30.00,10.0,Calm,Calm,-,N/A,,Clear,0,2013-08-02 11:15:00
6:35 AM,57.0,53.2,87,30.00,10.0,NW,3.5,-,N/A,,Clear,310,2013-08-02 11:35:00
6:55 AM,58.1,54.0,86,30.00,10.0,NW,4.6,-,N/A,,Clear,310,2013-08-02 11:55:00
7:35 AM,59.0,54.9,86,30.00,10.0,Calm,Calm,-,N/A,,Clear,0,2013-08-02 12:35:00
7:55 AM,61.0,55.2,81,29.99,10.0,South,4.6,-,N/A,,Clear,190,2013-08-02 12:55:00
8:15 AM,62.1,55.6,79,30.00,10.0,West,4.6,-,N/A,,Clear,270,2013-08-02 13:15:00
8:35 AM,64.9,55.8,72,30.01,10.0,Calm,Calm,-,N/A,,Clear,0,2013-08-02 13:35:00
8:55 AM,65.8,55.6,69,30.01,10.0,SSE,3.5,-,N/A,,Clear,150,2013-08-02 13:55:00
9:15 AM,68.2,56.3,66,30.01,10.0,SW,4.6,-,N/A,,Clear,230,2013-08-02 14:15:00
9:35 AM,70.9,57.2,62,30.01,10.0,West,9.2,-,N/A,,Clear,270,2013-08-02 14:35:00
9:55 AM,73.8,57.6,57,30.01,10.0,WSW,8.1,-,N/A,,Clear,240,2013-08-02 14:55:00
10:15 AM,76.5,58.1,53,30.01,10.0,WSW,5.8,-,N/A,,Clear,240,2013-08-02 15:15:00
10:35 AM,79.3,52.0,38,30.01,10.0,WSW,4.6,-,N/A,,Clear,250,2013-08-02 15:35:00
10:55 AM,81.7,50.9,34,30.02,10.0,West,8.1,-,N/A,,Clear,270,2013-08-02 15:55:00
11:15 AM,82.4,49.3,31,30.02,10.0,West,8.1,-,N/A,,Clear,270,2013-08-02 16:15:00
11:35 AM,84.4,48.7,29,30.02,10.0,WNW,8.1,-,N/A,,Clear,300,2013-08-02 16:35:00
11:55 AM,85.3,51.8,31,30.02,10.0,West,10.4,-,N/A,,Clear,280,2013-08-02 16:55:00
12:15 PM,85.8,49.6,29,30.02,10.0,WNW,10.4,17.3,N/A,,Clear,290,2013-08-02 17:15:00
12:35 PM,85.8,50.5,29,30.02,10.0,WNW,8.1,17.3,N/A,,Clear,300,2013-08-02 17:35:00
12:55 PM,88.5,46.4,23,30.02,10.0,NNW,15.0,-,N/A,,Clear,330,2013-08-02 17:55:00
1:15 PM,88.5,45.9,23,30.02,10.0,NW,11.5,24.2,N/A,,Clear,320,2013-08-02 18:15:00
1:35 PM,88.7,46.0,23,30.02,10.0,NNW,11.5,21.9,N/A,,Clear,340,2013-08-02 18:35:00
1:55 PM,89.2,45.9,22,30.02,10.0,NW,13.8,23.0,N/A,,Clear,320,2013-08-02 18:55:00
2:15 PM,90.3,45.9,21,30.02,10.0,NW,10.4,-,N/A,,Clear,310,2013-08-02 19:15:00
2:35 PM,90.5,45.0,21,30.02,10.0,NW,10.4,16.1,N/A,,Clear,320,2013-08-02 19:35:00
2:55 PM,89.1,50.0,26,30.02,10.0,NE,17.3,23.0,N/A,,Scattered Clouds,50,2013-08-02 19:55:00
3:15 PM,88.7,49.5,26,30.02,10.0,ENE,16.1,24.2,N/A,,Scattered Clouds,70,2013-08-02 20:15:00
3:35 PM,88.9,48.7,25,30.02,10.0,ENE,17.3,23.0,N/A,,Clear,70,2013-08-02 20:35:00
3:55 PM,88.9,51.6,28,30.02,10.0,NE,17.3,31.1,N/A,,Clear,50,2013-08-02 20:55:00
4:15 PM,88.9,53.4,30,30.02,10.0,ENE,18.4,26.5,N/A,,Clear,60,2013-08-02 21:15:00
4:35 PM,88.0,53.2,30,30.02,10.0,ENE,15.0,25.3,N/A,,Clear,70,2013-08-02 21:35:00
4:55 PM,87.8,52.7,30,30.02,10.0,ENE,13.8,-,N/A,,Clear,70,2013-08-02 21:55:00
5:15 PM,88.2,52.9,30,30.02,10.0,East,16.1,23.0,N/A,,Clear,80,2013-08-02 22:15:00
5:35 PM,87.4,52.3,30,30.02,10.0,ENE,16.1,21.9,N/A,,Clear,70,2013-08-02 22:35:00
5:55 PM,87.1,53.8,32,30.02,10.0,East,18.4,23.0,N/A,,Clear,80,2013-08-02 22:55:00
6:15 PM,86.4,54.3,33,30.02,10.0,East,17.3,23.0,N/A,,Clear,100,2013-08-02 23:15:00
6:35 PM,86.2,55.2,35,30.02,10.0,East,17.3,23.0,N/A,,Scattered Clouds,100,2013-08-02 23:35:00
6:55 PM,85.5,55.4,36,30.02,10.0,ESE,15.0,-,N/A,,Clear,110,2013-08-02 23:55:00
7:15 PM,84.7,55.6,37,30.03,10.0,ESE,15.0,-,N/A,,Clear,120,2013-08-03 00:15:00
7:35 PM,84.2,55.9,38,30.03,10.0,ESE,15.0,-,N/A,,Clear,110,2013-08-03 00:35:00
7:55 PM,82.9,56.7,41,30.03,10.0,SE,16.1,23.0,N/A,,Clear,130,2013-08-03 00:55:00
8:15 PM,80.8,58.6,47,30.04,10.0,SE,18.4,21.9,N/A,,Clear,130,2013-08-03 01:15:00
8:35 PM,78.4,60.6,54,30.04,10.0,SE,15.0,-,N/A,,Clear,130,2013-08-03 01:35:00
8:55 PM,76.5,60.8,58,30.05,10.0,SE,11.5,-,N/A,,Clear,130,2013-08-03 01:55:00
9:15 PM,74.7,61.0,62,30.06,10.0,SE,8.1,-,N/A,,Clear,130,2013-08-03 02:15:00
9:35 PM,73.4,61.2,65,30.07,10.0,SE,10.4,-,N/A,,Clear,140,2013-08-03 02:35:00
9:55 PM,72.1,61.3,69,30.08,10.0,SE,10.4,-,N/A,,Clear,140,2013-08-03 02:55:00
10:15 PM,71.6,61.9,71,30.09,10.0,SE,8.1,-,N/A,,Clear,140,2013-08-03 03:15:00
10:35 PM,70.0,62.2,76,30.10,10.0,SE,8.1,-,N/A,,Clear,140,2013-08-03 03:35:00
10:55 PM,70.2,62.6,77,30.10,10.0,SE,8.1,-,N/A,,Mostly Cloudy,140,2013-08-03 03:55:00
11:15 PM,70.2,62.8,77,30.10,10.0,SE,6.9,-,N/A,,Scattered Clouds,130,2013-08-03 04:15:00
11:35 PM,70.0,63.7,80,30.11,7.0,East,5.8,-,0.01,Rain-Thunderstorm,Light Thunderstorms and Rain,90,2013-08-03 04:35:00
11:55 PM,70.3,63.3,78,30.11,10.0,SE,11.5,-,0.01,,Scattered Clouds,130,2013-08-03 04:55:00